Location: Gazon
(48.1318°N, 1.2708°W)
Time: 23:06:11
(UTC+00:00)

DMSP B5D2-2 - Pass Details

Date: 18 September 2020
Orbit: 790 x 806 km, 98.3° (Epoch: 25 October)

Event Time Altitude Azimuth Distance (km) Brightness Sun altitude
Rises 20:19:14 0° 12° (NNE) 3,333 7.5 -21.4°
Reaches altitude 10° 20:21:35 10° 10° (N) 2,399 6.8 -21.7°
Maximum altitude 20:26:52 71° 287° (WNW) 854 4.3 -22.5°
Drops below altitude 10° 20:32:06 10° 205° (SSW) 2,380 6.5 -23.3°
Sets 20:34:26 0° 203° (SSW) 3,305 7.2 -23.6°
